Time,TemperatureF,DewpointF,PressureIn,WindDirection,WindDirectionDegrees,WindSpeedMPH,WindSpeedGustMPH,Humidity,HourlyPrecipIn,Conditions,Clouds,dailyrainin,SoftwareType,DateUTC
2013-01-21 00:00:00,38.7,30.4,30.15,ENE,69,0.0,1.0,72,0.00,CLR,,0.00,WeatherDisplay:10.37,2013-01-21 08:00:00,
2013-01-21 00:15:00,38.3,30.4,30.15,ENE,68,0.0,0.0,73,0.00,CLR,,0.00,WeatherDisplay:10.37,2013-01-21 08:15:00,
2013-01-21 00:30:00,38.1,30.2,30.15,ENE,68,0.0,0.0,73,0.00,CLR,,0.00,WeatherDisplay:10.37,2013-01-21 08:30:00,
2013-01-21 00:45:00,37.9,30.3,30.15,ENE,68,0.0,0.0,74,0.00,CLR,,0.00,WeatherDisplay:10.37,2013-01-21 08:45:00,
2013-01-21 01:00:00,37.6,30.0,30.15,ENE,68,1.0,1.0,74,0.00,CLR,,0.00,WeatherDisplay:10.37,2013-01-21 09:00:00,
2013-01-21 01:15:00,37.4,30.8,30.15,ENE,78,0.0,2.0,77,0.00,CLR,,0.00,WeatherDisplay:10.37,2013-01-21 09:15:00,
2013-01-21 01:30:00,37.2,30.7,30.15,ESE,109,0.0,1.0,77,0.00,CLR,,0.00,WeatherDisplay:10.37,2013-01-21 09:30:00,
2013-01-21 01:45:00,37.0,30.5,30.15,ENE,68,0.0,1.0,77,0.00,CLR,,0.00,WeatherDisplay:10.37,2013-01-21 09:45:00,
2013-01-21 02:00:00,36.9,30.3,30.15,ENE,68,0.0,0.0,77,0.00,CLR,,0.00,WeatherDisplay:10.37,2013-01-21 10:00:00,
2013-01-21 02:15:00,36.7,29.8,30.14,East,89,0.0,1.0,76,0.00,CLR,,0.00,WeatherDisplay:10.37,2013-01-21 10:15:00,
2013-01-21 02:30:00,36.7,30.1,30.14,ENE,72,0.0,1.0,77,0.00,CLR,,0.00,WeatherDisplay:10.37,2013-01-21 10:30:00,
2013-01-21 02:45:00,36.3,29.8,30.14,ESE,112,0.0,0.0,77,0.00,CLR,,0.00,WeatherDisplay:10.37,2013-01-21 10:45:00,
2013-01-21 03:00:00,36.1,29.6,30.14,ESE,117,0.0,1.0,77,0.00,CLR,,0.00,WeatherDisplay:10.37,2013-01-21 11:00:00,
2013-01-21 03:15:00,35.9,29.4,30.13,SE,144,0.0,1.0,77,0.00,CLR,,0.00,WeatherDisplay:10.37,2013-01-21 11:15:00,
2013-01-21 03:30:00,35.6,29.1,30.13,South,182,0.0,1.0,77,0.00,CLR,,0.00,WeatherDisplay:10.37,2013-01-21 11:30:00,
2013-01-21 03:45:00,35.6,29.4,30.13,SSW,202,0.0,1.0,78,0.00,CLR,,0.00,WeatherDisplay:10.37,2013-01-21 11:45:00,
2013-01-21 04:00:00,35.5,29.3,30.13,SW,225,0.0,0.0,78,0.00,CLR,,0.00,WeatherDisplay:10.37,2013-01-21 12:00:00,
2013-01-21 04:15:00,35.2,29.1,30.12,SW,225,0.0,0.0,78,0.00,CLR,,0.00,WeatherDisplay:10.37,2013-01-21 12:15:00,
2013-01-21 04:30:00,34.7,28.9,30.13,ESE,112,0.0,1.0,79,0.00,CLR,,0.00,WeatherDisplay:10.37,2013-01-21 12:30:00,
2013-01-21 04:45:00,34.5,28.7,30.13,ESE,112,0.0,0.0,79,0.00,CLR,,0.00,WeatherDisplay:10.37,2013-01-21 12:45:00,
2013-01-21 05:00:00,34.2,28.4,30.14,ESE,112,0.0,0.0,79,0.00,CLR,,0.00,WeatherDisplay:10.37,2013-01-21 13:00:00,
2013-01-21 05:15:00,33.8,28.0,30.13,ESE,112,0.0,0.0,79,0.00,CLR,,0.00,WeatherDisplay:10.37,2013-01-21 13:15:00,
2013-01-21 05:30:00,33.8,28.3,30.13,ESE,112,0.0,0.0,80,0.00,CLR,,0.00,WeatherDisplay:10.37,2013-01-21 13:30:00,
2013-01-21 05:45:00,33.8,28.3,30.14,ESE,112,0.0,0.0,80,0.00,CLR,,0.00,WeatherDisplay:10.37,2013-01-21 13:45:00,
2013-01-21 06:00:00,33.8,28.3,30.13,ESE,112,0.0,0.0,80,0.00,CLR,,0.00,WeatherDisplay:10.37,2013-01-21 14:00:00,
2013-01-21 06:15:00,33.4,27.9,30.13,ESE,112,0.0,0.0,80,0.00,CLR,,0.00,WeatherDisplay:10.37,2013-01-21 14:15:00,
2013-01-21 06:30:00,33.4,27.9,30.13,ESE,112,0.0,0.0,80,0.00,CLR,,0.00,WeatherDisplay:10.37,2013-01-21 14:30:00,
2013-01-21 06:45:00,33.3,27.8,30.14,ESE,112,0.0,0.0,80,0.00,CLR,,0.00,WeatherDisplay:10.37,2013-01-21 14:45:00,
2013-01-21 07:00:00,33.1,27.6,30.14,ESE,112,0.0,0.0,80,0.00,CLR,,0.00,WeatherDisplay:10.37,2013-01-21 15:00:00,
2013-01-21 07:15:00,33.1,27.6,30.14,ESE,112,0.0,0.0,80,0.00,CLR,,0.00,WeatherDisplay:10.37,2013-01-21 15:15:00,
2013-01-21 07:30:00,32.7,27.2,30.14,ESE,112,0.0,0.0,80,0.00,CLR,,0.00,WeatherDisplay:10.37,2013-01-21 15:30:00,
2013-01-21 07:45:00,32.7,27.2,30.14,ESE,112,0.0,0.0,80,0.00,CLR,,0.00,WeatherDisplay:10.37,2013-01-21 15:45:00,
2013-01-21 08:00:00,33.3,28.1,30.15,ESE,112,0.0,0.0,81,0.00,CLR,,0.00,WeatherDisplay:10.37,2013-01-21 16:00:00,
2013-01-21 08:15:00,34.3,29.4,30.15,ESE,112,0.0,0.0,82,0.00,CLR,,0.00,WeatherDisplay:10.37,2013-01-21 16:15:00,
2013-01-21 08:30:00,35.7,30.7,30.16,SW,223,0.0,0.0,82,0.00,CLR,,0.00,WeatherDisplay:10.37,2013-01-21 16:30:00,
2013-01-21 08:45:00,37.0,32.4,30.16,SE,127,0.0,1.0,83,0.00,CLR,,0.00,WeatherDisplay:10.37,2013-01-21 16:45:00,
2013-01-21 09:00:00,38.8,34.4,30.16,South,185,1.0,1.0,84,0.00,CLR,,0.00,WeatherDisplay:10.37,2013-01-21 17:00:00,
2013-01-21 09:15:00,41.3,36.8,30.17,ESE,107,1.0,1.0,84,0.00,CLR,,0.00,WeatherDisplay:10.37,2013-01-21 17:15:00,
2013-01-21 09:30:00,44.2,38.8,30.17,ESE,112,1.0,2.0,81,0.00,CLR,,0.00,WeatherDisplay:10.37,2013-01-21 17:30:00,
2013-01-21 09:45:00,47.2,40.4,30.18,SE,143,1.0,1.0,77,0.00,CLR,,0.00,WeatherDisplay:10.37,2013-01-21 17:45:00,
2013-01-21 10:00:00,49.6,40.9,30.18,SE,145,1.0,2.0,72,0.00,CLR,,0.00,WeatherDisplay:10.37,2013-01-21 18:00:00,
2013-01-21 10:15:00,51.8,41.6,30.19,ESE,118,1.0,2.0,68,0.00,CLR,,0.00,WeatherDisplay:10.37,2013-01-21 18:15:00,
2013-01-21 12:00:00,60.1,42.4,30.16,East,95,2.0,3.0,52,0.00,CLR,,0.00,WeatherDisplay:10.37,2013-01-21 20:00:00,
2013-01-21 12:15:00,61.2,43.4,30.15,SSE,147,0.0,3.0,52,0.00,CLR,,0.00,WeatherDisplay:10.37,2013-01-21 20:15:00,
2013-01-21 12:30:00,62.1,43.2,30.15,East,97,1.0,3.0,50,0.00,CLR,,0.00,WeatherDisplay:10.37,2013-01-21 20:30:00,
2013-01-21 12:45:00,63.0,44.0,30.15,ESE,117,1.0,3.0,50,0.00,CLR,,0.00,WeatherDisplay:10.37,2013-01-21 20:45:00,
2013-01-21 13:15:00,63.3,43.3,30.13,SSE,161,0.0,2.0,48,0.00,CLR,,0.00,WeatherDisplay:10.37,2013-01-21 21:15:00,
2013-01-21 13:30:00,63.9,41.5,30.13,ENE,60,2.0,2.0,44,0.00,CLR,,0.00,WeatherDisplay:10.37,2013-01-21 21:30:00,
2013-01-21 13:45:00,64.0,42.3,30.13,ESE,108,1.0,2.0,45,0.00,CLR,,0.00,WeatherDisplay:10.37,2013-01-21 21:45:00,
2013-01-21 14:00:00,63.3,41.6,30.12,SW,220,1.0,2.0,45,0.00,CLR,,0.00,WeatherDisplay:10.37,2013-01-21 22:00:00,
2013-01-21 14:15:00,63.4,42.2,30.12,WSW,249,1.0,2.0,46,0.00,CLR,,0.00,WeatherDisplay:10.37,2013-01-21 22:15:00,
2013-01-21 14:30:00,64.1,42.3,30.12,SSW,199,1.0,3.0,45,0.00,CLR,,0.00,WeatherDisplay:10.37,2013-01-21 22:30:00,
2013-01-21 14:45:00,63.7,41.4,30.12,ESE,122,2.0,2.0,44,0.00,CLR,,0.00,WeatherDisplay:10.37,2013-01-21 22:45:00,
2013-01-21 15:00:00,62.9,40.7,30.12,East,93,1.0,2.0,44,0.00,CLR,,0.00,WeatherDisplay:10.37,2013-01-21 23:00:00,
2013-01-21 15:15:00,62.8,41.1,30.12,SSW,208,1.0,4.0,45,0.00,CLR,,0.00,WeatherDisplay:10.37,2013-01-21 23:15:00,
2013-01-21 15:30:00,63.0,40.7,30.12,SSW,209,0.0,2.0,44,0.00,CLR,,0.00,WeatherDisplay:10.37,2013-01-21 23:30:00,
2013-01-21 15:45:00,62.7,41.0,30.11,SW,231,1.0,2.0,45,0.00,CLR,,0.00,WeatherDisplay:10.37,2013-01-21 23:45:00,
2013-01-21 16:00:00,62.1,40.5,30.10,South,191,1.0,3.0,45,0.00,CLR,,0.00,WeatherDisplay:10.37,2013-01-22 00:00:00,
2013-01-21 16:15:00,61.7,39.6,30.10,SE,143,0.0,2.0,44,0.00,CLR,,0.00,WeatherDisplay:10.37,2013-01-22 00:15:00,
2013-01-21 16:30:00,61.3,39.8,30.10,SSW,206,0.0,2.0,45,0.00,CLR,,0.00,WeatherDisplay:10.37,2013-01-22 00:30:00,
2013-01-21 16:45:00,60.8,39.9,30.10,WSW,240,1.0,2.0,46,0.00,CLR,,0.00,WeatherDisplay:10.37,2013-01-22 00:45:00,
2013-01-21 17:00:00,59.5,40.4,30.10,WSW,254,0.0,1.0,49,0.00,CLR,,0.00,WeatherDisplay:10.37,2013-01-22 01:00:00,
2013-01-21 17:15:00,58.6,40.6,30.10,West,268,0.0,1.0,51,0.00,CLR,,0.00,WeatherDisplay:10.37,2013-01-22 01:15:00,
2013-01-21 17:30:00,57.6,40.1,30.10,WSW,248,0.0,1.0,52,0.00,CLR,,0.00,WeatherDisplay:10.37,2013-01-22 01:30:00,
2013-01-21 17:45:00,56.5,39.5,30.10,WSW,248,0.0,0.0,53,0.00,CLR,,0.00,WeatherDisplay:10.37,2013-01-22 01:45:00,
2013-01-21 18:00:00,55.1,38.7,30.09,WSW,248,0.0,0.0,54,0.00,CLR,,0.00,WeatherDisplay:10.37,2013-01-22 02:00:00,
2013-01-21 18:15:00,53.8,38.0,30.10,WSW,248,0.0,0.0,55,0.00,CLR,,0.00,WeatherDisplay:10.37,2013-01-22 02:15:00,
2013-01-21 18:30:00,52.9,37.6,30.09,WSW,248,0.0,0.0,56,0.00,CLR,,0.00,WeatherDisplay:10.37,2013-01-22 02:30:00,
2013-01-21 18:45:00,51.4,37.1,30.10,WSW,248,0.0,0.0,58,0.00,CLR,,0.00,WeatherDisplay:10.37,2013-01-22 02:45:00,
2013-01-21 19:00:00,50.4,37.0,30.09,WSW,248,0.0,0.0,60,0.00,CLR,,0.00,WeatherDisplay:10.37,2013-01-22 03:00:00,
2013-01-21 19:15:00,49.7,36.8,30.10,WSW,248,0.0,0.0,61,0.00,CLR,,0.00,WeatherDisplay:10.37,2013-01-22 03:15:00,
2013-01-21 19:30:00,49.1,36.6,30.10,WSW,248,0.0,0.0,62,0.00,CLR,,0.00,WeatherDisplay:10.37,2013-01-22 03:30:00,
2013-01-21 19:45:00,48.2,35.7,30.09,WSW,248,0.0,0.0,62,0.00,CLR,,0.00,WeatherDisplay:10.37,2013-01-22 03:45:00,
2013-01-21 20:00:00,47.5,35.5,30.10,WSW,248,0.0,0.0,63,0.00,CLR,,0.00,WeatherDisplay:10.37,2013-01-22 04:00:00,
2013-01-21 20:15:00,46.9,35.4,30.10,WSW,248,0.0,0.0,64,0.00,CLR,,0.00,WeatherDisplay:10.37,2013-01-22 04:15:00,
2013-01-21 20:30:00,46.4,35.2,30.10,WSW,248,0.0,0.0,65,0.00,CLR,,0.00,WeatherDisplay:10.37,2013-01-22 04:30:00,
2013-01-21 20:45:00,45.7,34.6,30.11,WSW,248,0.0,0.0,65,0.00,CLR,,0.00,WeatherDisplay:10.37,2013-01-22 04:45:00,
2013-01-21 21:00:00,45.0,34.7,30.11,WSW,248,0.0,0.0,67,0.00,CLR,,0.00,WeatherDisplay:10.37,2013-01-22 05:00:00,
2013-01-21 21:15:00,44.2,34.3,30.11,WSW,248,0.0,0.0,68,0.00,CLR,,0.00,WeatherDisplay:10.37,2013-01-22 05:15:00,
2013-01-21 21:30:00,43.7,34.2,30.12,WSW,248,0.0,0.0,69,0.00,CLR,,0.00,WeatherDisplay:10.37,2013-01-22 05:30:00,
2013-01-21 21:45:00,43.3,34.2,30.12,ENE,57,0.0,1.0,70,0.00,CLR,,0.00,WeatherDisplay:10.37,2013-01-22 05:45:00,
2013-01-21 22:00:00,43.1,34.3,30.12,ENE,68,0.0,0.0,71,0.00,CLR,,0.00,WeatherDisplay:10.37,2013-01-22 06:00:00,
2013-01-21 22:15:00,42.6,33.9,30.12,ENE,68,0.0,0.0,71,0.00,CLR,,0.00,WeatherDisplay:10.37,2013-01-22 06:15:00,
2013-01-21 22:30:00,42.1,33.4,30.13,ENE,68,0.0,0.0,71,0.00,CLR,,0.00,WeatherDisplay:10.37,2013-01-22 06:30:00,
2013-01-21 22:45:00,41.7,33.0,30.12,ENE,68,0.0,0.0,71,0.00,CLR,,0.00,WeatherDisplay:10.37,2013-01-22 06:45:00,
2013-01-21 23:00:00,41.5,33.1,30.13,ENE,68,0.0,0.0,72,0.00,CLR,,0.00,WeatherDisplay:10.37,2013-01-22 07:00:00,
2013-01-21 23:15:00,41.2,32.8,30.12,ENE,68,0.0,0.0,72,0.00,CLR,,0.00,WeatherDisplay:10.37,2013-01-22 07:15:00,
2013-01-21 23:30:00,40.8,32.5,30.12,WSW,247,0.0,1.0,72,0.00,CLR,,0.00,WeatherDisplay:10.37,2013-01-22 07:30:00,
2013-01-21 23:45:00,40.5,32.5,30.12,WSW,248,0.0,0.0,73,0.00,CLR,,0.00,WeatherDisplay:10.37,2013-01-22 07:45:00,